Syracuse, NY

4:12 AM EST on December 08, 2019 (GMT -0500)
Syracuse Hancock International

Weather History for KSYR - October, 2019

Change the Weather History Date:

Sunday, October 6, 2019

  Actual Average Record
Temperature  
Mean Temperature 56 °F 54 °F  
Max Temperature 66 °F 64 °F 86 °F (1937)
Min Temperature 46 °F 44 °F 23 °F (1984)
Degree Days  
Heating Degree Days 9 11  
Month to date heating degree days 60 63  
Since 1 July heating degree days 135 230  
Cooling Degree Days 0 0  
Month to date cooling degree days 11 0  
Year to date cooling degree days 622 565  
Growing Degree Days 6 (Base 50)    
Moisture  
Dew Point 50 °F    
Average Humidity 71    
Maximum Humidity 78    
Minimum Humidity 59    
Precipitation  
Precipitation 0.13 in 0.11 in 3.55 in (1955)
Month to date precipitation 0.44 0.69  
Year to date precipitation 34.57 28.97  
Snow  
Snow - 0.00 in 0.00 in (2002)
Month to date snowfall 0.0 0.0  
Since 1 July snowfall T 0.0  
Since 1 September snowfall T 0.0  
Snow Depth 0.00 in    
Sea Level Pressure  
Sea Level Pressure 30.11 in    
Wind  
Wind Speed 10 mph ()    
Max Wind Speed 21 mph    
Max Gust Speed 28 mph    
Visibility 10.0 miles    
Events      
T = Trace of Precipitation, MM = Missing Value Source: Averaged Metar Reports

Daily Weather History Graph

Daily Weather History Graph

Search for Another Location

Airport or City:

Astronomy

Oct. 06, 2019 Rise Set
Actual Time 7:07 AM EDT 6:37 PM EDT
Civil Twilight 6:38 AM EDT 7:05 PM EDT
Nautical Twilight 6:05 AM EDT 7:38 PM EDT
Astronomical Twilight 5:32 AM EDT 8:11 PM EDT
Moon 3:26 PM EDT (10/6) No Moon Set
Length of Visible Light 12h 26m
Length of Day
11h 30m
First Quarter, 59% of the Moon is Illuminated
Oct 6
First Quarter
Oct 13
Full
Oct 21
Last Quarter
Oct 27
New
Nov 4
First Quarter

Hourly Weather History & Observations

Time (EDT) Temp. Dew Point Humidity Pressure Visibility Wind Dir Wind Speed Gust Speed Precip Events Conditions
12:54 AM 46.9 °F 36.0 °F 66% 30.20 in 10.0 mi East 6.9 mph - N/A   Mostly Cloudy
1:54 AM 51.1 °F 37.0 °F 59% 30.20 in 10.0 mi SE 10.4 mph - N/A   Mostly Cloudy
2:54 AM 52.0 °F 39.0 °F 61% 30.19 in 10.0 mi SE 9.2 mph - N/A   Overcast
3:54 AM 51.1 °F 39.9 °F 66% 30.17 in 10.0 mi ESE 8.1 mph - N/A   Mostly Cloudy
4:54 AM 52.0 °F 41.0 °F 66% 30.14 in 10.0 mi SSE 8.1 mph - N/A   Mostly Cloudy
5:54 AM 52.0 °F 43.0 °F 71% 30.12 in 10.0 mi ESE 6.9 mph - N/A   Overcast
6:54 AM 55.9 °F 46.0 °F 69% 30.12 in 10.0 mi South 15.0 mph 19.6 mph N/A   Overcast
7:54 AM 57.0 °F 48.0 °F 72% 30.13 in 10.0 mi South 12.7 mph 20.7 mph N/A   Mostly Cloudy
8:54 AM 59.0 °F 48.9 °F 69% 30.15 in 10.0 mi South 18.4 mph - N/A   Overcast
9:54 AM 60.1 °F 50.0 °F 69% 30.15 in 10.0 mi South 12.7 mph 21.9 mph N/A   Overcast
10:54 AM 62.1 °F 51.1 °F 67% 30.14 in 10.0 mi South 13.8 mph 20.7 mph N/A   Overcast
11:54 AM 61.0 °F 54.0 °F 78% 30.12 in 10.0 mi SSE 11.5 mph 18.4 mph 0.01 in   Overcast
12:54 PM 62.1 °F 55.0 °F 78% 30.10 in 10.0 mi SSE 12.7 mph 20.7 mph 0.01 in   Overcast
1:54 PM 64.9 °F 55.0 °F 70% 30.08 in 10.0 mi South 17.3 mph 23.0 mph N/A   Mostly Cloudy
2:54 PM 64.9 °F 55.0 °F 70% 30.07 in 10.0 mi South 10.4 mph 19.6 mph N/A   Overcast
3:54 PM 64.9 °F 55.9 °F 73% 30.06 in 10.0 mi South 13.8 mph 23.0 mph N/A   Overcast
4:54 PM 66.0 °F 55.9 °F 70% 30.06 in 10.0 mi South 11.5 mph - N/A   Overcast
5:54 PM 64.9 °F 55.9 °F 73% 30.06 in 10.0 mi South 10.4 mph - N/A   Overcast
6:54 PM 64.9 °F 55.9 °F 73% 30.06 in 10.0 mi South 12.7 mph - 0.00 in   Overcast
7:54 PM 64.9 °F 55.9 °F 73% 30.07 in 10.0 mi South 8.1 mph - N/A   Mostly Cloudy
8:54 PM 64.9 °F 57.0 °F 75% 30.08 in 10.0 mi South 12.7 mph - N/A   Overcast
9:54 PM 64.9 °F 57.9 °F 78% 30.08 in 10.0 mi South 9.2 mph - 0.00 in   Overcast
10:54 PM 64.9 °F 57.9 °F 78% 30.06 in 10.0 mi South 10.4 mph - N/A   Mostly Cloudy
11:54 PM 66.0 °F 57.9 °F 75% 30.05 in 10.0 mi South 11.5 mph - N/A   Overcast